Springfield, OH

12:29 PM EST on January 17, 2017 (GMT -0500)
Springfield-Beckley Municipal

Weather History for KSGH - March, 2014

Change the Weather History Date:

Monday, March 31, 2014

  Actual Average (KFFO) Record (KFFO)
Temperature  
Mean Temperature 46 °F -  
Max Temperature 63 °F 56 °F 77 °F (1998)
Min Temperature 28 °F 35 °F 24 °F (2011)
Degree Days  
Heating Degree Days 20    
Moisture  
Dew Point 32 °F    
Average Humidity 68    
Maximum Humidity 96    
Minimum Humidity 34    
Precipitation  
Precipitation 0.00 in - - ()
Sea Level Pressure  
Sea Level Pressure 30.17 in    
Wind  
Wind Speed 4 mph (SE)    
Max Wind Speed 13 mph    
Max Gust Speed 17 mph    
Visibility 6 miles    
Events      
Averages and records for this station are not official NWS values.
T = Trace of Precipitation, MM = Missing Value Source: NWS Daily Summary

Daily Weather History Graph

Daily Weather History Graph

Search for Another Location

Airport or City:

Trip Planner

Search our weather history database for the weather conditions in past years. The results will help you decide how hot, cold, wet, or windy it might be!

Date:

Astronomy

Mar. 31, 2014 Rise Set
Actual Time 7:21 AM EDT 7:58 PM EDT
Civil Twilight 6:53 AM EDT 8:25 PM EDT
Nautical Twilight 6:21 AM EDT 8:57 PM EDT
Astronomical Twilight 5:48 AM EDT 9:31 PM EDT
Moon 7:44 AM EDT (3/31) 9:16 PM EDT (3/31)
Length of Visible Light 13h 31m
Length of Day
12h 37m
New Moon, 1% of the Moon is Illuminated
Mar 31
New Moon
Apr 7
First Quarter
Apr 15
Full
Apr 22
Last Quarter
Apr 29
New

Hourly Weather History & Observations

Time (EDT) Temp. Windchill Dew Point Humidity Pressure Visibility Wind Dir Wind Speed Gust Speed Precip Events Conditions
12:10 AM 30.2 °F 24.3 °F 26.6 °F 86% 30.15 in 1.5 mi East 5.8 mph - N/A   Clear
12:20 AM 28.4 °F - 26.6 °F 93% 30.16 in 2.5 mi Calm Calm - N/A   Clear
12:27 AM 30.2 °F - 28.4 °F 93% 30.17 in 5.0 mi Calm Calm - N/A   Clear
12:56 AM 32.0 °F 28.7 °F 28.0 °F 85% 30.20 in 8.0 mi SSW 3.5 mph - N/A   Clear
1:56 AM 30.0 °F - 28.0 °F 92% 30.21 in 8.0 mi Calm Calm - N/A   Clear
2:56 AM 30.0 °F - 28.0 °F 92% 30.21 in 8.0 mi Calm Calm - N/A   Clear
3:56 AM 28.0 °F - 27.1 °F 96% 30.18 in 4.0 mi Calm Calm - N/A   Clear
4:56 AM 28.0 °F - 26.1 °F 92% 30.17 in 5.0 mi Calm Calm - N/A   Clear
5:56 AM 30.0 °F - 27.1 °F 89% 30.19 in 8.0 mi Calm Calm - N/A   Clear
6:56 AM 29.1 °F - 27.1 °F 92% 30.21 in 7.0 mi Calm Calm - N/A   Clear
7:56 AM 28.0 °F - 27.1 °F 96% 30.23 in 4.0 mi Calm Calm - N/A   Clear
8:33 AM 33.8 °F - 30.2 °F 87% 30.22 in 2.5 mi Calm Calm - N/A   Clear
8:44 AM 35.6 °F - 32.0 °F 87% 30.23 in 5.0 mi Calm Calm - N/A   Clear
8:56 AM 36.9 °F - 32.9 °F 86% 30.25 in 5.0 mi Calm Calm - N/A   Clear
9:56 AM 45.9 °F 42.9 °F 34.0 °F 63% 30.25 in 7.0 mi SSE 5.8 mph - N/A   Clear
10:56 AM 50.9 °F - 34.0 °F 52% 30.24 in 6.0 mi SSE 9.2 mph - N/A   Haze
11:56 AM 54.0 °F - 34.9 °F 49% 30.23 in 7.0 mi SE 10.4 mph - N/A   Clear
12:56 PM 56.8 °F - 34.9 °F 44% 30.21 in 7.0 mi SSE 6.9 mph - N/A   Clear
1:56 PM 57.9 °F - 36.0 °F 44% 30.19 in 7.0 mi SE 12.7 mph - N/A   Clear
2:56 PM 59.9 °F - 34.9 °F 39% 30.17 in 7.0 mi SSE 11.5 mph - N/A   Clear
3:56 PM 61.0 °F - 32.9 °F 35% 30.15 in 7.0 mi SSE 10.4 mph - N/A   Clear
4:56 PM 61.9 °F - 32.9 °F 34% 30.13 in 8.0 mi SSE 11.5 mph 17.3 mph N/A   Clear
5:56 PM 63.0 °F - 34.0 °F 34% 30.10 in 7.0 mi SSE 11.5 mph - N/A   Clear
6:56 PM 61.9 °F - 36.0 °F 38% 30.08 in 8.0 mi SE 11.5 mph - N/A   Clear
7:56 PM 54.9 °F - 36.0 °F 49% 30.07 in 7.0 mi SE 8.1 mph - N/A   Clear
8:56 PM 50.9 °F - 36.0 °F 57% 30.07 in 9.0 mi ESE 6.9 mph - N/A   Clear
9:56 PM 50.0 °F - 34.0 °F 54% 30.06 in 8.0 mi SE 6.9 mph - N/A   Clear
10:56 PM 50.0 °F - 34.0 °F 54% 30.05 in 8.0 mi SE 9.2 mph - N/A   Clear
11:56 PM 50.9 °F - 34.0 °F 52% 30.01 in 9.0 mi SE 11.5 mph - N/A   Clear